Welcome to the New NWS' Forecast!
Most changes are behind the scenes, but click here for differences you might notice.
Latest weather observations around

Bremerton, Bremerton National Airport (KPWT)

Using English Units (Switch to International System of Units)
Date/ Time (PDT) Wind (mph) Vis. (mi) Weather Sky Cond. Temp (°F) Rel. Humidity Wind Chill (°F) Heat Index (°F) Pressure Precip. (in)
Air Dwpt 6 hour Altimeter (inHg) Sea level (inHg) 1 hr 3 hr 6 hr
Max Min
Jul 19 05:56 Calm 10 Cloudy OVC008 55 52     89%     30.16 30.2      
Jul 19 05:42 Calm 10 Cloudy BKN008 OVC014 55 52     88%     30.16        
Jul 19 05:28 WNW 3 10 Cloudy BKN010 OVC014 55 52     88%     30.16        
Jul 19 03:56 Calm 10 Cloudy OVC009 54 51     90%     30.16 30.2      
Jul 19 03:16 Calm 10 Cloudy OVC009 54 52     94%     30.16        
Jul 19 02:56 Calm 10 Cloudy OVC011 52 50     93%     30.16        
Jul 19 02:40 Calm 10 Mostly Cloudy BKN011 52 48     87%     30.16        
Jul 19 01:56 Calm 10 Clear CLR 52 50     93%     30.16        
Jul 19 00:56 SSE 3 10 Mostly Cloudy BKN050 55 51     86%     30.15 30.2      
Jul 18 23:56 S 5 10 Mostly Cloudy BKN048 56 51     84%     30.16        
Jul 18 21:56 S 5 10 Clear CLR 61 51     70%     30.15 30.2      
Jul 18 20:56 SSW 6 10 Clear CLR 64 52     65%     30.14 30.18      
Jul 18 19:56   10 Clear CLR 70 54     57%     30.13 30.17      
Jul 18 18:56 SSW 8 10 Cloudy OVC043 75 57     54%   75 30.13 30.16      
Jul 18 17:56 S 6 10 Cloudy OVC043 75 59     57%   75 30.14 30.17      
Jul 18 16:56 WSW 3 10 Clear CLR 76 56     50%   76 30.15 30.19      
Jul 18 15:56 WNW 7 10 Clear CLR 75 57     54%   75 30.16 30.2      
Jul 18 14:56 6 10 Clear CLR 73 57     57%   73 30.18 30.22      
Jul 18 13:56 SSW 8 10 Mostly Clear FEW028 70 56     61%     30.2 30.24      
Jul 18 13:33 7 10 Partly Cloudy SCT023 70 55     60%     30.2        
Jul 18 12:56 SSE 7 10 Mostly Cloudy BKN021 66 55     68%     30.2 30.25      
Jul 18 11:56 SW 7 10 Cloudy OVC015 63 54     72%     30.21        
Jul 18 11:53 Calm 10 Cloudy OVC015 63 54     72%     30.21        
Jul 18 09:56 SSW 6 10 Cloudy OVC011 60 54     80%     30.2        
Jul 18 08:56 SSW 6 10 Cloudy OVC011 59 54     83%     30.19 30.24      
Jul 18 07:07 SW 6 10 Cloudy OVC011 57 54     88%     30.17        
Jul 18 06:56 SW 7 10 Cloudy OVC009 57 54     89%     30.16 30.2      
Jul 18 05:56 SSW 6 10 Cloudy OVC007 57 54     89%     30.15 30.18      
Jul 18 03:56 SSW 6 10 Cloudy OVC007 58 55     90%     30.12 30.15      
Jul 18 02:56 SSW 7 10 Cloudy OVC009 58 55     90%     30.11 30.14      
Jul 18 01:56 SSW 8 10 Cloudy OVC009 59 55     87%     30.1 30.14      
Jul 18 01:22 SSW 7 10 Cloudy OVC009 59 55     88%     30.1        
Jul 18 00:56 SSW 9 10 Cloudy OVC011 59 55     87%     30.09 30.13      
Jul 17 23:56 SSW 8 10 Cloudy OVC011 59 55     87%     30.09 30.12      
Jul 17 21:56 SSW 6 10 Mostly Cloudy BKN013 58 55     90%     30.06 30.11      
Jul 17 20:56 SSW 7 10 Clear CLR 61 56     83%     30.04 30.09      
Jul 17 19:56 SSW 11 10 Clear CLR 66 57     73%     30.03 30.07      
Jul 17 18:56 SW 11 10 Clear CLR 74 57     56%   74 30.02 30.06      
Jul 17 17:56 SW 14 10 Clear CLR 80 54     41%   80 30.01 30.05      
Jul 17 16:56 SW 13 10 Clear CLR 82 54     38%   81 30.01 30.05      
Jul 17 15:56 SW 11 10 Clear CLR 83 55     38%   82 30.02 30.06      
Jul 17 14:56 WSW 9 10 Clear CLR 81 57     44%   81 30.03 30.07      
Jul 17 13:56 SW 7 10 Clear CLR 79 56     45%   79 30.04 30.07      
Jul 17 12:56 WSW 7 10 Clear CLR 76 57     52%   76 30.04 30.08      
Jul 17 11:56 SW 7 10 Clear CLR 74 57     56%   74 30.05 30.09      
Jul 17 09:56 SSW 8 10 Clear CLR 68 57     68%     30.06        
Jul 17 08:56 SSW 9 10 Clear CLR 63 56     78%     30.05 30.09      
Jul 17 07:56 SSW 8 10 Clear CLR 60 56     86%     30.05 30.08      
Jul 17 06:56 SSW 5 9 Clear CLR 56 55     97%     30.03 30.06      
Jul 17 05:56 SW 3 5 Fog/Mist CLR 53 52     96%     30.02 30.06      
Jul 17 03:56 SSW 5 10 Clear CLR 54 53     97%     30.02 30.05      
Jul 17 02:56 SSW 3 10 Clear CLR 57 54     89%     30.01 30.03      
Jul 17 01:56 Calm 10 Clear   58 53     84%     30 30.03      
Jul 17 00:56 Calm 10 Clear CLR 60 53     78%     30        
Jul 16 23:56 Calm 10 Clear CLR 65 54     68%     29.99 30.02      
Jul 16 21:56 Calm 10 Clear CLR 70 53     55%     29.99        
Jul 16 18:56 ENE 8 10 Clear CLR 89 49     25%   86 29.96 29.99      
Jul 16 17:56 ENE 9 10 Clear CLR 90 51     27%   87 29.97 30      
Jul 16 16:56   10 Clear CLR 91 52     27%   88 29.98 30.01      
Jul 16 15:56 ENE 8 10 Clear CLR 91 50     25%   88 29.99 30.02      
Jul 16 14:56 ENE 7 10 Clear CLR 91 48     23%   88 30 30.03      
Jul 16 13:56 E 7 10 Clear CLR 89 51     27%   86 30.01 30.04      
Jul 16 12:56 N 5 10 Clear CLR 87 50     28%   85 30.02 30.06      
Jul 16 11:56 3 10 Clear CLR 86 50     29%   84 30.04 30.07      
Jul 16 10:56 3 10 Clear CLR 80 50     35%   79 30.04 30.07      
Jul 16 09:56 NE 5 10 Clear CLR 78 48     35%   77 30.05 30.07      
Jul 16 08:56 NE 7 10 Clear CLR 74 48     40%   73 30.05 30.08      
Jul 16 07:56 Calm 10 Clear CLR 70 49     47%     30.05 30.07      
Jul 16 06:56 Calm 10 Clear CLR 60 50     69%     30.03 30.06      
May 15 09:04 SW 8 10 Cloudy OVC007 55 52     88%     29.96        
May 14 08:56 Calm 10 Clear CLR 62 54     75%     29.97 30.01      
May 14 07:56 SSW 6 10 Clear CLR 58 54     87%     29.98        
Notice The following observation data may not be complete
May 13 20:56 Calm 10 Clear CLR   52      %     29.9        
May 13 12:56 NNE 7 10 Clear CLR 75 55     50%   75 29.95        
May 13 02:56 Calm 10 Clear CLR 47 44     90%     29.97 30.01      
May 12 17:56 ENE 9 10 Clear CLR 74 48     40%   73 29.99        
May 12 01:56 Calm 10 Clear CLR 45 45     100%     30.2        
May 12 00:56 Calm 10 Clear CLR 47 46     97%     30.2        
May 11 15:56 Calm 10 Mostly Cloudy BKN033 63 49     60%     30.23        
May 11 12:56 SSE 5 10 Cloudy BKN024 OVC028 57 49     74%     30.27 30.33      
May 11 07:56 Calm 10 Cloudy BKN019 OVC027 49 47     93%     30.27 30.32      
Jun 11 09:56 SSW 3 10 Cloudy OVC005 52 49     89%     30.06        
Jun 10 19:56 NNE 5 10 Clear CLR 62 45     53%     29.9 29.95      
Jun 10 15:56 WSW 3 10 Cloudy SCT046 OVC060 61 46     58%     29.86        
Notice The following observation data may not be complete
Jun 10 08:40   10 Cloudy OVC006          %              
Jun 10 02:15 WSW 7 10 Cloudy OVC004 48 46     93% 45   29.87        
Jun 09 16:56 SSW 8 10 Light Rain FEW026 58 46     65%     29.83 29.89 0   0
Jun 09 04:36 Calm 10 Cloudy SCT021 BKN028 OVC048 48 46     93%     29.93        
Jun 08 09:48 SSW 9 10 Light Rain BKN006 OVC030 55 54     94%     29.68   0    
Jun 08 04:56 SW 3 10 Light Rain SCT002 BKN010 OVC043 52 52     100%     29.64   0   0
Jun 07 09:56 Calm 10 Clear   67 49     52%     29.8        
Jun 06 02:56 E 5 10 Clear   54 43     66%     30.03        
Jun 05 16:56 ENE 9 10 Clear   71 39     31%   69 30.07